Regional Weather Roundup
Issued by NWS Midland/Odessa, TX

Skip options and go directly to product.
Home | Oldest Version | Previous Version | Current Version | All | Graphics & Text | Save Text | Print | Product List | Glossary On

Skip product version selection by date and time.   
627
ASUS44 KMAF 251610
RWRMAF
MIDLAND AREA WEATHER ROUNDUP
NATIONAL WEATHER SERVICE MIDLAND TX
1000 AM CST SUN JAN 25 2015

...IN SOUTHWEST TEXAS AND SOUTHEAST NEW MEXICO...

CITY           SKY/WX    TMP DP  RH WIND       PRES   REMARKS
ALPINE         MOSUNNY   44  20  37 CALM      30.31R
ANDREWS        FAIR      46  30  54 N9        30.25R
ARTESIA        MOSUNNY   37  30  75 W9        30.31R WCI  31
BIG SPRING     PTSUNNY   43  33  66 NW5       30.23R
CARLSBAD       PTSUNNY   48  30  49 NW12      30.29R
DRYDEN           N/A     58  24  27 N13       30.20R
FORT STOCKTON  SUNNY     46  28  49 W12       30.26R
GUAD PASS      NOT AVBL
HOBBS          SUNNY     37  32  81 NW8       30.27R WCI  31
MARFA          MOSUNNY   41  25  52 CALM      30.26R
MIDLAND AIRPK  PTSUNNY   50  30  46 N10G16    30.22R
MIDLAND INTL   PTSUNNY   50  31  48 N15       30.21R
ODESSA         MOSUNNY   50  30  46 NE14G22   30.22R
PECOS          MOSUNNY   45  32  61 NW9       30.29R WCI  40
PRESIDIO       FAIR      45  32  61 NW3       30.26R
SEMINOLE       PTSUNNY   46  29  51 N14       30.26R WCI  40
SNYDER         MOSUNNY  N/A N/A N/A N10       30.19S
WINK           MOSUNNY   46  30  53 NW7       30.24R
$$
...OTHER STATIONS IN TEXAS...

CITY           SKY/WX    TMP DP  RH WIND       PRES   REMARKS
ABILENE        SUNNY     51  33  50 NW13      30.17R
AMARILLO       SUNNY     40  28  62 W13       30.20R WCI  32
AUSTIN         MOSUNNY   56  38  50 NW12      30.07R
BROWNSVILLE    MOSUNNY   59  47  64 SW10      30.15R
CORPUS CHRISTI PTSUNNY   55  45  68 W7        30.12S
DALLAS FTW     MOSUNNY   54  36  50 NW18      30.03R
DEL RIO        MOSUNNY   55  33  43 NW14G23   30.16R
EL PASO        PTSUNNY   40  27  59 N5        30.27R WCI  37
HOUSTON INT    MOSUNNY   56  40  55 W9        30.04R
LUBBOCK        MOSUNNY   46  29  51 NW6       30.22R
SAN ANGELO     SUNNY     49  36  61 W6        30.17R
SAN ANTONIO    MOSUNNY   58  35  42 NW9       30.11R
WACO           SUNNY     56  39  53 N23G30    30.06R
WICHITA FALLS  NOT AVBL
$$
...OTHER LOCATIONS IN NEW MEXICO...

CITY           SKY/WX    TMP DP  RH WIND       PRES   REMARKS
ALAMAGORDO     PTSUNNY   32  25  74 S5        30.28R WCI  27
ALBUQUERQUE    MOSUNNY   34  20  56 NW6       30.32R WCI  29
CANNON AFB     MOSUNNY   38  27  63 NW7       30.26R WCI  33
CLOVIS         SUNNY     39  28  65 N10       30.25R WCI  32
HOLLOMAN AFB   PTSUNNY   30  25  81 S2        30.26R
ROSWELL        MOSUNNY   39  30  70 W5        30.30R WCI  36
RUIDOSO        SUNNY     37  16  41 SE7       30.33R WCI  32
SANTA FE       SUNNY     32  17  54 NE8       30.29R WCI  25
TRUTH OR CONSE PTSUNNY   36  23  59 N3        30.29R
TUCUMCARI      MOSUNNY   35  27  72 W8        30.26R WCI  29
$$

USA.gov is the U.S. government's official web portal to all federal, state and local government web resources and services.